| time (UTC) | temp F | wind direction | speed MPH | gust MPH | rain 1hr in | rain 24hr in | rain mn in | humidity % | barometer mb |
| 20260831190041 | 77 | 268 | 2.0 | 6.0 | 0.00 | 0.00 | 0.00 | 50 | 1009.5 |
| 20260831184538 | 76 | 199 | 3.0 | 8.0 | 0.00 | 0.00 | 0.00 | 51 | 1009.8 |
| 20260831183031 | 75 | 207 | 1.0 | 7.0 | 0.00 | 0.00 | 0.00 | 53 | 1009.9 |
| 20260831181535 | 74 | 131 | 0.0 | 6.0 | 0.00 | 0.00 | 0.00 | 56 | 1010.1 |
| 20260831180023 | 72 | 163 | 1.0 | 7.0 | 0.00 | 0.00 | 0.00 | 57 | 1010.4 |
| 20260831174532 | 71 | 165 | 1.0 | 4.0 | 0.00 | 0.00 | 0.00 | 61 | 1010.5 |
| 20260831173017 | 69 | 202 | 2.0 | 5.0 | 0.00 | 0.00 | 0.00 | 62 | 1010.7 |
| 20260831171516 | 68 | 128 | 1.0 | 4.0 | 0.00 | 0.00 | 0.00 | 63 | 1010.8 |
| 20260831170010 | 67 | 216 | 3.0 | 5.0 | 0.00 | 0.00 | 0.00 | 66 | 1010.9 |
| 20260831164506 | 66 | 82 | 1.0 | 5.0 | 0.00 | 0.00 | 0.00 | 67 | 1011.1 |
| 20260831163003 | 65 | 173 | 1.0 | 4.0 | 0.00 | 0.00 | 0.00 | 70 | 1011.2 |
| 20260831161600 | 64 | 215 | 0.0 | 3.0 | 0.00 | 0.00 | 0.00 | 72 | 1011.3 |
| 20260831160055 | 62 | 157 | 1.0 | 3.0 | 0.00 | 0.00 | 0.00 | 75 | 1011.5 |
| 20260831154554 | 60 | 123 | 1.0 | 3.0 | 0.00 | 0.00 | 0.00 | 78 | 1011.5 |
| 20260831153107 | 58 | 23 | 0.0 | 2.0 | 0.00 | 0.00 | 0.00 | 80 | 1011.5 |
| 20260831151555 | 58 | 23 | 0.0 | 0.0 | 0.00 | 0.00 | 0.00 | 80 | 1011.6 |
| 20260831150050 | 55 | 23 | 0.0 | 0.0 | 0.00 | 0.00 | 0.00 | 76 | 1011.8 |
| 20260831144621 | 52 | 23 | 0.0 | 0.0 | 0.00 | 0.00 | 0.00 | 74 | 1011.8 |
| 20260831143049 | 51 | 23 | 0.0 | 0.0 | 0.00 | 0.00 | 0.00 | 76 | 1011.8 |
| 20260831141547 | 51 | 23 | 0.0 | 0.0 | 0.00 | 0.00 | 0.00 | 76 | 1011.8 |
| 20260831140046 | 50 | 23 | 0.0 | 0.0 | 0.00 | 0.00 | 0.00 | 77 | 1011.8 |
| 20260831134546 | 50 | 23 | 0.0 | 0.0 | 0.00 | 0.00 | 0.00 | 78 | 1011.8 |
| 20260831133048 | 51 | 23 | 0.0 | 0.0 | 0.00 | 0.00 | 0.00 | 78 | 1011.8 |
| 20260831131542 | 51 | 23 | 0.0 | 0.0 | 0.00 | 0.00 | 0.00 | 78 | 1011.9 |
| 20260831130040 | 51 | 23 | 0.0 | 0.0 | 0.00 | 0.00 | 0.00 | 79 | 1012.0 |
| 20260831124540 | 51 | 23 | 0.0 | 0.0 | 0.00 | 0.00 | 0.00 | 79 | 1011.9 |
| 20260831123038 | 52 | 23 | 0.0 | 0.0 | 0.00 | 0.00 | 0.00 | 79 | 1012.0 |
| 20260831121543 | 52 | 23 | 0.0 | 1.0 | 0.00 | 0.00 | 0.00 | 79 | 1012.2 |
| 20260831120038 | 52 | 23 | 0.0 | 1.0 | 0.00 | 0.00 | 0.00 | 80 | 1012.3 |
| 20260831114547 | 52 | 23 | 0.0 | 0.0 | 0.00 | 0.00 | 0.00 | 80 | 1012.4 |
| 20260831113030 | 52 | 23 | 0.0 | 0.0 | 0.00 | 0.00 | 0.00 | 80 | 1012.5 |
| 20260831111529 | 53 | 23 | 0.0 | 1.0 | 0.00 | 0.00 | 0.00 | 80 | 1012.6 |
| 20260831110027 | 53 | 23 | 0.0 | 0.0 | 0.00 | 0.00 | 0.00 | 80 | 1012.5 |
| 20260831104533 | 53 | 23 | 0.0 | 1.0 | 0.00 | 0.00 | 0.00 | 80 | 1012.4 |
| 20260831103025 | 54 | 9 | 0.0 | 2.0 | 0.00 | 0.00 | 0.00 | 80 | 1012.6 |
| 20260831101523 | 54 | 355 | 0.0 | 2.0 | 0.00 | 0.00 | 0.00 | 80 | 1012.9 |
| 20260831100019 | 54 | 80 | 0.0 | 0.0 | 0.00 | 0.00 | 0.00 | 80 | 1013.0 |
| 20260831094517 | 55 | 95 | 0.0 | 0.0 | 0.00 | 0.00 | 0.00 | 80 | 1013.2 |
| 20260831093020 | 55 | 51 | 0.0 | 1.0 | 0.00 | 0.00 | 0.00 | 80 | 1013.2 |
| 20260831091513 | 56 | 126 | 0.0 | 1.0 | 0.00 | 0.00 | 0.00 | 80 | 1013.3 |
| 20260831090011 | 56 | 25 | 0.0 | 1.0 | 0.00 | 0.00 | 0.00 | 80 | 1013.3 |
| 20260831084509 | 57 | 69 | 0.0 | 2.0 | 0.00 | 0.00 | 0.00 | 79 | 1013.4 |
| 20260831083006 | 57 | 33 | 0.0 | 3.0 | 0.00 | 0.00 | 0.00 | 79 | 1013.6 |
| 20260831081505 | 57 | 24 | 0.0 | 1.0 | 0.00 | 0.00 | 0.00 | 79 | 1013.7 |
| 20260831080001 | 58 | 360 | 0.0 | 3.0 | 0.00 | 0.00 | 0.00 | 78 | 1013.9 |
| 20260831074606 | 58 | 84 | 0.0 | 3.0 | 0.00 | 0.00 | 0.00 | 78 | 1014.0 |
| 20260831073101 | 58 | 179 | 2.0 | 3.0 | 0.00 | 0.00 | 0.00 | 78 | 1014.0 |
| 20260831071606 | 59 | 205 | 0.0 | 4.0 | 0.00 | 0.00 | 0.00 | 75 | 1014.0 |
| 20260831070051 | 61 | 117 | 1.0 | 4.0 | 0.00 | 0.00 | 0.00 | 74 | 1014.1 |
| 20260831064549 | 60 | 229 | 1.0 | 4.0 | 0.00 | 0.00 | 0.00 | 75 | 1014.4 |
| 20260831063047 | 62 | 200 | 2.0 | 4.0 | 0.00 | 0.00 | 0.00 | 71 | 1014.5 |
| 20260831061546 | 63 | 244 | 1.0 | 3.0 | 0.00 | 0.00 | 0.00 | 71 | 1014.6 |
| 20260831060058 | 62 | 14 | 2.0 | 7.0 | 0.00 | 0.00 | 0.00 | 73 | 1014.7 |
| 20260831054544 | 60 | 5 | 1.0 | 4.0 | 0.00 | 0.00 | 0.00 | 76 | 1014.9 |
| 20260831053048 | 59 | 96 | 0.0 | 2.0 | 0.00 | 0.00 | 0.00 | 77 | 1015.1 |
| 20260831051543 | 59 | 236 | 0.0 | 3.0 | 0.00 | 0.00 | 0.00 | 77 | 1015.3 |
| 20260831050057 | 59 | 98 | 0.0 | 2.0 | 0.00 | 0.00 | 0.00 | 77 | 1015.4 |
| 20260831044537 | 59 | 5 | 0.0 | 1.0 | 0.00 | 0.00 | 0.00 | 77 | 1015.6 |
| 20260831043043 | 60 | 5 | 0.0 | 2.0 | 0.00 | 0.00 | 0.00 | 76 | 1015.6 |
| 20260831041551 | 60 | 5 | 0.0 | 2.0 | 0.00 | 0.00 | 0.00 | 75 | 1015.7 |
| 20260831040036 | 61 | 5 | 0.0 | 1.0 | 0.00 | 0.00 | 0.00 | 73 | 1015.7 |
| 20260831034539 | 62 | 5 | 0.0 | 2.0 | 0.00 | 0.00 | 0.00 | 72 | 1015.7 |
| 20260831033036 | 63 | 96 | 1.0 | 3.0 | 0.00 | 0.00 | 0.00 | 70 | 1015.6 |
| 20260831031540 | 65 | 38 | 0.0 | 1.0 | 0.00 | 0.00 | 0.00 | 68 | 1015.7 |
| 20260831030034 | 66 | 38 | 0.0 | 1.0 | 0.00 | 0.00 | 0.00 | 66 | 1015.8 |
| 20260831024531 | 67 | 319 | 0.0 | 2.0 | 0.00 | 0.00 | 0.00 | 64 | 1015.9 |
| 20260831023030 | 67 | 65 | 0.0 | 3.0 | 0.00 | 0.00 | 0.00 | 62 | 1016.0 |
| 20260831021531 | 68 | 323 | 1.0 | 12.0 | 0.00 | 0.00 | 0.00 | 60 | 1016.1 |
| 20260831020028 | 69 | 5 | 2.0 | 8.0 | 0.00 | 0.00 | 0.00 | 59 | 1016.2 |
| 20260831014526 | 69 | 5 | 3.0 | 9.0 | 0.00 | 0.00 | 0.00 | 58 | 1016.3 |
| 20260831013038 | 70 | 282 | 4.0 | 11.0 | 0.00 | 0.00 | 0.00 | 57 | 1016.4 |
| 20260831011523 | 70 | 307 | 2.0 | 8.0 | 0.00 | 0.00 | 0.00 | 56 | 1016.6 |
| 20260831010021 | 71 | 88 | 2.0 | 8.0 | 0.00 | 0.00 | 0.00 | 55 | 1016.8 |
| 20260831004521 | 72 | 355 | 2.0 | 8.0 | 0.00 | 0.00 | 0.00 | 54 | 1016.8 |
| 20260831003024 | 73 | 83 | 1.0 | 11.0 | 0.00 | 0.00 | 0.00 | 53 | 1016.8 |
| 20260831001524 | 74 | 69 | 3.0 | 8.0 | 0.00 | 0.00 | 0.00 | 51 | 1016.8 |
| 20260831000017 | 74 | 312 | 1.0 | 5.0 | 0.00 | 0.00 | 0.00 | 52 | 1016.7 |
| 20260830234515 | 74 | 18 | 2.0 | 11.0 | 0.00 | 0.00 | 0.00 | 52 | 1016.8 |
| 20260830233014 | 74 | 19 | 2.0 | 9.0 | 0.00 | 0.00 | 0.00 | 52 | 1017.0 |
| 20260830231512 | 74 | 112 | 3.0 | 10.0 | 0.00 | 0.00 | 0.00 | 52 | 1017.2 |
| 20260830230008 | 74 | 103 | 2.0 | 9.0 | 0.00 | 0.00 | 0.00 | 51 | 1017.5 |
| 20260830224513 | 74 | 194 | 2.0 | 7.0 | 0.00 | 0.00 | 0.00 | 51 | 1017.6 |
| 20260830223004 | 74 | 34 | 3.0 | 10.0 | 0.00 | 0.00 | 0.00 | 52 | 1017.9 |
| 20260830221502 | 74 | 355 | 0.0 | 6.0 | 0.00 | 0.00 | 0.00 | 51 | 1018.1 |
| 20260830220059 | 73 | 347 | 4.0 | 8.0 | 0.00 | 0.00 | 0.00 | 52 | 1018.3 |
| 20260830214559 | 73 | 291 | 3.0 | 10.0 | 0.00 | 0.00 | 0.00 | 51 | 1018.4 |
| 20260830213055 | 73 | 223 | 2.0 | 5.0 | 0.00 | 0.00 | 0.00 | 52 | 1018.6 |
| 20260830211553 | 72 | 88 | 1.0 | 11.0 | 0.00 | 0.00 | 0.00 | 52 | 1018.8 |
| 20260830210100 | 73 | 308 | 2.0 | 7.0 | 0.00 | 0.00 | 0.00 | 51 | 1018.9 |
| 20260830204549 | 72 | 242 | 3.0 | 9.0 | 0.00 | 0.00 | 0.00 | 53 | 1019.0 |
| 20260830203047 | 71 | 350 | 3.0 | 10.0 | 0.00 | 0.00 | 0.00 | 52 | 1019.2 |
| 20260830201545 | 71 | 315 | 2.0 | 8.0 | 0.00 | 0.00 | 0.00 | 53 | 1019.3 |
| 20260830200057 | 71 | 122 | 1.0 | 7.0 | 0.00 | 0.00 | 0.00 | 53 | 1019.5 |
| 20260830194548 | 68 | 122 | 3.0 | 7.0 | 0.00 | 0.00 | 0.00 | 60 | 1019.7 |
| 20260830193037 | 68 | 127 | 2.0 | 7.0 | 0.00 | 0.00 | 0.00 | 60 | 1019.9 |
| 20260830191537 | 68 | 159 | 2.0 | 6.0 | 0.00 | 0.00 | 0.00 | 60 | 1020.1 |